Theta_e
299 299 299 299 300 300 300 300 300 300 300 303 304 305 305 305 304 304 303 303 303 303 301 300 302 303 302 302 303 302 302 303 304 308 309 308 308 309 309 308 312 313 315 316 315 320 321 325 335 345 339 338 338 341
299 299 299 300 300 300 300 300 300 300 300 301 304 305 304 305 305 304 304 303 302 302 303 303 302 302 302 301 302 303 305 301 302 304 307 304 309 309 312 312 311 312 317 320 318 319 318 327 328 333 334 336 336 336
299 300 300 300 300 300 300 300 300 300 301 302 304 305 305 305 305 305 305 304 302 303 301 300 301 302 302 302 302 303 303 303 304 305 308 308 311 310 310 312 314 313 316 318 319 320 323 330 331 330 331 332 331 333
300 300 300 300 300 300 300 300 300 301 302 303 306 306 306 306 306 306 306 305 302 302 303 300 303 302 304 303 302 301 302 302 303 307 307 307 310 309 312 312 310 311 312 315 318 319 325 331 330 328 330 330 330 331
300 300 300 300 300 300 300 301 302 303 303 306 306 306 307 307 306 306 306 306 305 303 302 302 302 302 302 302 301 301 302 302 304 307 309 310 309 309 311 311 313 311 312 316 318 319 324 327 327 327 329 331 329 331
300 301 302 302 302 302 302 302 303 303 306 307 306 307 307 307 306 306 302 303 303 303 304 307 301 301 303 302 300 301 301 301 303 304 306 309 307 310 313 315 312 314 314 315 321 322 324 326 326 327 329 331 331 331
303 303 303 303 303 303 302 303 304 305 307 306 306 308 307 307 306 304 304 303 304 303 305 305 307 303 303 306 303 301 301 302 302 305 306 305 309 311 313 312 311 313 313 316 319 322 327 327 328 327 328 327 328 329
302 302 302 302 303 303 303 304 305 308 307 307 307 308 308 307 306 306 306 304 304 304 303 305 308 307 307 306 308 303 303 303 306 307 309 311 312 312 313 312 313 313 314 317 319 321 325 325 326 326 326 327 328 327
302 302 303 303 304 304 304 305 307 307 308 308 307 307 307 306 306 306 306 306 304 302 303 303 307 311 308 310 311 311 310 312 311 313 313 312 312 312 311 310 314 315 317 320 323 323 324 326 327 326 326 326 327 326
303 304 305 305 305 305 306 307 308 308 308 309 307 306 306 307 308 308 305 305 304 305 304 303 303 306 306 310 313 312 312 312 313 310 311 312 310 309 310 311 316 316 319 321 325 326 326 326 326 326 325 324 325 325
305 306 305 305 306 307 307 308 309 308 308 308 303 303 307 308 309 309 308 308 306 305 301 302 304 306 307 310 314 313 310 309 312 313 311 310 311 315 317 317 321 322 322 322 321 321 321 322 324 324 323 323 324 324
307 306 306 307 307 308 309 310 310 308 308 307 306 306 307 307 310 311 311 309 307 310 310 309 312 307 310 311 314 313 312 307 316 316 311 314 313 316 321 323 324 323 323 323 323 322 322 322 320 322 324 325 324 324
306 307 308 308 309 310 311 311 312 311 309 308 305 307 309 312 318 317 317 317 319 317 315 316 318 316 316 316 316 316 319 318 315 312 311 319 319 316 316 319 320 322 322 322 322 323 322 321 319 320 320 321 323 322
307 309 308 310 311 312 312 313 313 313 312 307 310 311 314 316 316 317 316 315 316 316 315 314 317 316 314 313 317 320 318 315 317 316 319 319 316 313 311 311 312 314 318 317 317 317 316 315 315 314 315 318 318 318
309 309 311 311 312 312 312 313 313 314 312 310 311 313 312 313 313 313 312 313 313 313 312 314 313 313 315 318 316 315 318 317 316 318 318 316 314 312 310 309 309 310 309 311 310 311 311 312 311 311 311 311 310 309
310 311 312 312 313 312 312 312 313 313 311 312 312 312 311 312 311 310 309 309 309 313 312 313 315 316 318 317 318 319 315 318 320 319 317 314 312 310 308 306 306 306 307 307 307 308 308 309 310 309 308 307 306 305
311 312 312 314 312 313 313 312 312 310 311 313 312 308 309 309 309 309 308 307 305 311 315 316 319 320 316 317 319 318 319 318 317 314 313 312 311 308 305 303 303 302 303 303 303 304 305 306 306 307 306 305 304 303
311 312 313 315 314 312 313 313 311 312 313 309 311 310 307 307 307 308 307 307 304 304 310 315 312 314 314 316 317 317 316 316 311 308 307 306 305 304 303 302 300 300 300 301 302 302 303 303 304 304 303 303 302 301
312 313 314 315 314 313 311 311 311 312 311 309 308 307 306 307 306 306 307 307 306 303 305 308 309 310 311 309 311 311 310 312 310 307 304 303 300 300 300 299 298 297 297 297 298 299 301 301 301 301 302 301 300 299
314 314 314 316 314 312 310 309 310 310 313 311 310 310 308 307 305 307 308 307 305 304 306 306 307 307 307 306 306 307 306 303 307 302 300 301 300 298 297 297 296 296 295 295 296 296 297 299 299 299 298 297 297 296
314 314 316 316 316 313 308 308 309 308 308 311 309 310 309 307 307 306 306 304 306 306 306 304 303 301 299 301 301 302 301 300 299 299 299 297 299 298 297 296 295 295 294 294 294 294 294 294 297 298 296 294 294 294
313 314 315 316 315 312 310 310 309 309 311 312 311 309 310 310 307 307 303 307 307 306 305 303 302 301 299 299 299 300 301 299 298 297 296 296 295 295 296 296 295 294 293 293 293 293 293 295 297 295 294 293 293 292
314 314 316 315 315 307 311 312 314 313 315 312 310 313 312 312 308 304 308 307 307 305 306 303 303 300 298 298 300 299 299 297 295 295 294 294 294 294 294 294 294 293 292 292 293 293 293 295 295 293 293 292 292 291
314 313 313 313 313 312 312 314 312 313 313 312 312 315 315 312 308 306 309 306 304 305 303 303 301 297 297 297 294 294 296 296 295 295 294 294 293 293 293 293 293 292 292 293 293 293 293 293 294 292 292 291 291 291
310 312 310 306 311 314 316 315 314 313 315 313 314 313 311 308 310 309 308 305 304 304 303 302 298 296 295 294 293 294 295 295 294 293 293 293 293 293 293 293 293 292 292 293 292 292 292 292 292 292 292 291 290 290
309 314 312 315 314 315 315 317 316 315 314 316 317 314 309 309 309 307 306 304 304 304 304 303 298 294 293 293 292 293 294 294 294 293 292 292 292 292 291 291 291 292 293 292 292 292 292 291 291 291 291 291 291 290
312 314 311 308 310 312 314 312 310 309 312 315 313 313 310 310 307 304 303 303 303 306 305 301 301 296 293 293 293 293 294 293 293 292 292 292 292 292 292 292 291 293 293 292 292 292 292 291 291 291 290 290 290 290
313 312 316 314 315 313 316 312 312 311 309 307 310 313 312 308 304 302 302 306 302 300 299 299 298 296 294 294 294 294 294 293 292 291 291 291 291 291 291 291 291 292 292 292 292 292 292 291 291 290 290 290 290 290
315 313 313 316 317 316 315 313 311 308 306 308 312 310 309 305 303 305 307 301 299 298 297 297 295 295 294 294 293 293 293 292 291 290 289 289 289 291 291 291 291 292 292 291 291 291 291 291 291 291 291 290 290 291
318 313 316 317 317 315 313 309 310 306 304 306 305 305 305 306 308 308 306 299 298 298 298 298 297 294 294 293 292 292 292 291 291 290 288 289 290 290 290 290 291 291 291 291 291 291 291 291 291 291 291 291 291 291
315 316 318 316 316 312 311 308 308 309 309 308 305 306 308 306 307 305 305 300 299 298 297 296 295 295 294 293 292 291 291 292 291 291 291 290 290 290 290 290 291 291 291 291 291 291 291 291 291 291 291 291 291 291
313 317 317 316 314 310 308 309 309 311 311 310 310 307 309 309 309 305 299 298 297 297 297 296 295 295 295 295 294 294 293 292 292 291 291 291 291 290 290 290 290 291 291 291 291 291 291 291 291 291 291 291 290 290
310 310 311 315 313 313 311 312 311 312 311 309 310 309 311 311 312 306 301 298 298 299 298 297 297 296 295 295 294 294 294 293 292 292 292 291 291 291 291 290 290 290 290 291 291 291 291 291 291 292 292 291 290 291
Wind_Speed
23 25 26 26 26 27 27 29 29 30 30 28 27 27 25 22 18 13 12 11 9 3 8 10 14 12 10 6 4 3 5 1 1 3 2 2 2 3 4 9 4 7 8 5 6 5 12 3 6 2 6 10 13 12
24 26 27 27 27 29 30 31 33 33 33 30 26 25 25 23 20 16 10 10 11 6 8 24 27 30 29 25 7 5 4 2 3 1 2 2 2 3 1 4 4 8 7 4 9 7 6 4 6 5 4 9 9 9
25 27 27 28 29 32 34 35 36 36 34 32 28 27 26 24 21 17 19 15 7 3 8 6 9 20 20 31 30 6 5 6 5 1 2 2 6 2 3 4 4 5 2 3 6 6 8 5 4 4 3 6 7 6
25 26 28 29 31 35 37 37 38 38 36 33 30 28 26 23 20 17 18 13 8 3 4 6 7 12 16 19 28 35 15 4 3 3 4 3 3 3 3 4 8 8 8 3 5 14 8 3 3 3 3 5 5 6
28 29 31 33 35 37 40 39 40 39 37 34 32 27 23 20 18 17 20 22 22 6 3 7 23 8 7 18 22 25 23 10 3 2 4 3 3 4 4 4 8 4 5 4 8 5 7 5 4 4 5 4 4 6
31 33 34 36 37 39 40 41 40 39 36 40 35 27 20 16 11 3 3 2 10 20 2 3 5 4 7 9 14 11 10 6 5 4 4 3 4 4 4 4 6 7 6 17 9 6 14 6 6 3 3 3 3 9
32 33 35 36 38 39 41 40 40 37 40 40 38 28 16 11 12 5 3 1 9 20 2 4 3 4 5 3 2 2 10 3 4 3 3 4 4 6 3 10 10 10 9 16 12 11 10 10 5 4 8 6 2 9
33 35 35 37 38 39 39 39 38 37 41 42 26 17 8 7 9 11 20 15 18 4 1 3 4 4 5 3 1 3 4 3 4 3 3 3 1 3 5 12 11 16 15 16 14 13 5 4 7 7 9 9 12 12
34 34 35 36 37 37 38 36 34 41 42 28 13 3 5 3 3 3 1 9 21 3 1 2 2 3 4 2 2 1 3 3 2 3 2 1 2 5 10 12 16 16 11 9 11 12 7 10 11 13 17 14 13 9
34 33 34 34 34 35 33 29 38 40 33 13 3 1 2 1 8 9 3 2 1 2 2 3 1 3 2 2 1 1 1 1 2 2 4 2 3 13 16 19 16 16 14 6 11 12 8 10 13 14 16 8 7 5
33 32 32 32 33 31 24 33 37 35 9 6 6 2 8 8 1 1 0 0 0 2 3 3 5 3 3 3 1 2 1 1 2 2 2 2 3 8 13 14 2 12 13 14 12 11 9 11 12 12 8 6 8 4
31 30 30 30 24 22 30 36 32 20 10 9 10 8 5 3 2 3 3 1 1 3 2 3 3 5 3 4 1 1 1 1 3 4 3 5 4 13 12 14 14 14 17 14 12 11 10 6 7 8 9 11 9 11
28 27 25 18 23 27 30 30 22 14 6 1 0 1 3 3 5 6 9 4 6 3 2 5 3 1 2 2 1 1 3 4 2 4 5 7 15 18 19 17 20 18 18 18 15 15 13 16 20 15 10 17 22 19
26 25 13 21 27 29 25 23 19 10 5 4 5 8 5 6 7 4 10 6 5 6 10 3 2 2 3 4 3 6 4 3 5 5 7 10 17 17 19 19 21 23 22 21 19 17 16 18 18 24 24 22 23 16
25 16 14 26 30 23 19 20 21 13 6 4 5 7 5 5 5 6 5 4 6 7 3 3 2 2 4 3 5 5 5 6 7 8 7 9 13 15 16 16 17 16 15 15 14 15 15 16 17 19 28 27 27 24
19 9 19 28 25 17 19 15 15 9 5 4 6 4 7 7 13 14 11 9 10 10 1 3 4 5 6 4 6 7 4 6 6 7 7 9 12 11 12 13 13 12 12 12 18 20 23 22 18 19 27 26 27 28
7 7 22 25 20 15 22 9 5 5 4 5 4 2 3 4 4 6 8 9 10 8 6 3 6 6 2 4 5 7 6 8 6 7 7 10 10 11 12 14 13 17 16 19 20 21 18 19 25 26 16 22 25 25
4 16 17 20 17 9 8 11 4 4 5 2 3 5 4 2 5 7 8 10 7 4 4 5 4 7 5 6 5 4 3 5 7 6 7 8 10 14 17 13 19 21 20 21 21 23 24 21 16 11 14 14 22 21
15 14 16 16 12 5 4 5 5 3 2 1 3 3 2 3 4 6 8 13 11 6 3 3 6 4 4 2 3 6 4 3 3 3 5 14 18 16 17 20 23 23 23 22 21 17 18 20 16 14 14 18 18 17
6 7 14 10 10 4 3 3 2 3 2 2 0 3 2 1 4 5 9 8 5 4 6 4 2 2 2 3 3 3 3 3 1 6 6 8 14 17 20 16 15 16 18 20 22 24 20 19 21 19 19 19 19 17
4 6 6 9 5 5 2 1 3 1 2 1 2 1 1 3 4 5 5 5 5 3 3 3 3 3 7 4 8 5 9 10 4 2 1 3 9 12 13 15 15 18 15 14 12 13 18 13 13 18 21 21 21 22
5 8 4 3 3 4 3 1 2 1 2 1 2 2 2 2 3 3 2 4 3 2 2 2 3 3 4 5 6 11 8 14 14 15 14 11 4 5 7 9 10 11 13 13 13 11 12 11 13 19 21 21 24 25
6 4 3 3 2 4 2 1 2 2 2 2 3 3 3 2 2 2 3 3 2 2 4 2 2 3 3 7 10 12 11 10 11 10 11 12 11 11 13 15 13 12 10 13 12 12 14 15 18 22 22 23 23 23
4 3 3 2 2 2 3 3 2 2 2 2 2 2 2 2 3 3 1 2 3 6 6 7 4 3 5 7 5 7 10 6 7 10 8 6 7 8 9 9 11 13 13 15 16 18 20 21 20 20 18 18 17 17
3 5 3 4 1 3 3 5 3 1 1 1 2 2 2 2 2 2 1 3 3 3 4 5 3 3 2 2 3 5 9 7 5 4 9 6 4 3 6 6 8 11 11 13 13 14 15 16 15 13 11 12 13 11
3 2 2 1 2 2 1 2 3 2 1 2 1 1 2 2 2 1 2 2 2 2 3 3 3 1 1 1 1 3 6 6 5 6 9 8 7 3 2 3 5 7 8 6 6 7 7 9 10 11 10 7 5 6
1 2 1 0 1 0 1 1 0 2 2 1 0 1 1 1 2 3 2 3 3 4 7 5 5 6 6 4 4 4 5 5 4 6 8 11 12 11 9 6 5 8 4 1 2 2 4 5 6 7 6 6 5 5
3 3 2 2 1 2 1 1 1 2 2 2 2 2 3 4 4 3 4 2 3 4 2 2 4 7 9 7 5 4 6 8 6 2 2 8 12 12 12 12 9 5 4 4 6 8 6 5 4 5 7 8 7 7
3 3 3 2 2 3 3 4 3 3 4 3 4 3 3 3 3 5 5 9 8 8 6 7 6 7 7 7 5 5 6 8 9 5 4 3 6 10 13 12 10 5 6 7 6 5 4 4 5 7 6 7 7 8
3 4 3 2 3 5 4 5 3 3 3 3 2 1 2 2 3 6 7 11 10 9 11 9 9 11 7 6 3 2 2 5 6 4 1 1 3 8 10 11 10 7 3 4 4 6 8 8 6 7 8 9 9 10
4 3 1 3 4 3 2 3 3 4 2 1 1 2 2 2 1 3 8 11 9 8 9 7 8 10 9 8 8 5 4 1 1 3 2 1 3 6 8 9 12 11 7 6 8 6 6 7 7 7 7 8 8 10
4 6 4 3 3 2 1 2 3 3 3 2 2 1 1 0 2 2 6 11 10 9 9 7 6 3 4 5 8 9 6 4 3 2 0 2 4 5 6 7 7 7 6 5 5 5 5 6 6 7 7 8 10 11
0 2 2 2 1 2 2 3 3 2 1 2 3 4 4 4 4 1 5 12 8 7 8 7 4 1 1 4 7 5 4 7 5 3 3 5 7 9 9 5 4 6 5 5 5 5 6 6 8 9 8 9 10 13
Wind_Direction
327 326 328 331 331 328 330 330 329 327 328 322 314 311 310 307 302 298 276 267 235 247 272 233 246 248 251 238 254 309 331 276 343 224 237 253 265 268 272 229 225 175 175 183 218 241 240 327 327 279 335 307 306 299
323 322 325 328 328 325 328 329 327 329 330 325 312 306 304 299 298 289 267 266 266 237 264 282 264 251 237 227 233 195 240 327 253 124 235 265 278 286 245 270 230 231 210 216 198 207 237 180 210 265 279 294 301 292
324 323 326 328 327 325 327 329 328 330 329 324 313 304 300 296 289 283 269 271 256 260 285 260 239 268 253 239 231 234 213 206 230 231 260 234 247 270 244 257 283 261 23 223 297 258 248 236 258 283 312 287 296 311
325 325 325 327 326 324 325 328 330 331 329 325 316 310 300 293 284 276 270 256 216 263 273 283 273 259 274 246 217 212 224 190 182 173 215 228 235 220 249 286 282 259 333 326 295 276 289 227 288 298 354 301 5 24
324 324 324 325 325 324 324 330 331 331 328 328 324 314 307 288 283 276 274 267 242 189 265 302 307 297 299 227 209 210 214 221 229 237 233 227 211 227 225 241 254 195 219 225 247 279 246 236 278 332 60 304 65 57
320 321 322 323 323 324 325 330 331 331 328 331 322 321 302 280 271 272 317 253 213 202 247 288 290 293 302 215 203 197 201 198 210 222 241 241 234 172 249 248 217 215 251 249 259 286 298 218 254 216 91 335 34 76
321 322 322 322 323 324 327 330 331 330 331 330 328 318 292 256 218 177 198 269 176 182 252 292 277 274 286 248 172 119 170 181 184 239 242 224 227 200 248 263 260 261 279 272 267 266 240 211 219 225 108 57 358 81
321 321 321 322 323 323 328 331 331 331 332 334 332 326 303 189 221 244 253 240 165 141 352 273 278 305 7 305 307 160 137 212 204 233 232 219 202 218 251 249 266 267 259 264 249 235 224 207 201 108 74 65 61 42
321 321 322 324 323 325 330 333 330 332 331 333 344 37 95 113 193 287 237 195 192 132 238 237 260 288 346 276 268 328 176 197 242 252 246 220 161 239 249 266 273 270 255 273 236 194 173 217 145 117 89 78 80 58
322 323 324 326 326 328 333 334 334 332 338 341 7 11 21 41 313 156 124 101 143 196 241 264 237 258 299 267 309 354 10 266 274 275 320 266 238 258 270 275 276 260 261 182 164 154 143 128 104 96 90 77 88 90
325 326 326 328 329 329 333 337 339 339 3 8 17 1 316 329 248 113 39 216 56 262 233 239 219 242 203 244 263 205 220 279 277 266 232 291 294 289 295 292 334 96 84 61 76 95 98 91 96 100 109 130 90 115
329 329 331 334 337 336 333 340 344 339 333 315 293 300 304 353 7 355 328 274 214 274 235 253 254 199 250 217 231 259 328 24 318 0 345 323 273 308 20 24 67 74 75 70 55 65 73 72 97 115 100 85 70 71
331 335 341 349 342 340 342 345 350 337 344 72 83 358 22 344 17 7 349 342 325 322 274 310 316 338 284 240 227 238 355 12 4 11 6 356 22 1 24 39 43 49 59 63 58 60 67 76 69 69 71 68 72 66
338 342 349 352 347 348 350 353 2 3 16 52 15 7 31 5 359 337 323 306 295 293 310 294 308 19 345 11 347 356 11 22 21 25 42 20 26 24 26 34 42 39 43 49 53 55 50 59 61 55 59 74 70 54
343 346 354 354 350 356 2 9 5 8 33 51 40 13 358 328 299 311 295 289 319 314 327 350 15 45 4 37 11 8 13 21 14 38 21 19 21 32 38 39 45 46 43 35 35 35 44 63 70 62 59 62 63 61
347 349 357 349 357 7 26 12 360 7 44 55 41 355 317 347 2 5 357 350 343 344 28 24 25 18 33 16 360 20 18 33 34 37 14 16 28 30 38 39 40 50 52 48 50 40 30 36 51 59 61 60 63 59
359 1 350 352 1 16 33 15 6 43 53 32 343 317 291 289 301 340 354 350 336 8 10 36 41 12 347 20 24 357 31 36 24 14 15 21 32 27 28 36 36 39 38 39 42 47 55 52 52 51 50 43 55 58
356 344 352 354 360 358 9 25 63 68 54 359 26 318 322 283 339 360 346 1 13 9 7 44 38 17 27 14 20 355 338 15 36 28 23 12 20 34 37 39 38 37 38 38 40 43 43 47 54 55 63 63 62 55
329 343 352 357 358 10 23 24 51 88 92 214 295 321 330 319 347 345 11 5 7 19 51 47 52 7 334 325 313 340 358 0 18 355 32 27 32 33 39 43 41 36 37 35 39 43 48 47 44 47 58 66 64 51
324 333 346 357 8 23 46 360 45 103 139 230 274 9 38 307 297 9 23 6 358 23 34 50 17 300 293 301 309 303 323 341 33 54 27 25 32 46 43 44 48 43 41 38 41 40 36 42 42 45 54 59 64 49
342 343 349 356 10 43 100 64 36 123 148 103 340 48 272 355 18 14 7 339 26 34 26 355 313 287 329 3 40 34 32 58 49 84 197 23 23 44 49 42 47 58 50 34 31 26 37 28 52 75 71 69 74 74
336 345 343 352 19 7 71 44 147 161 82 213 25 12 24 26 353 353 296 28 26 328 356 306 309 313 357 16 355 40 48 74 67 62 58 54 25 16 25 38 51 50 42 32 34 26 36 50 89 92 84 80 81 77
345 355 359 3 15 31 274 27 59 20 76 327 7 37 358 15 317 342 50 358 295 314 318 307 318 6 14 37 56 46 47 77 82 75 77 79 75 74 76 71 67 65 51 39 44 52 64 90 99 93 89 84 79 74
358 23 45 36 43 289 349 14 53 77 73 52 52 16 355 303 352 58 71 282 271 323 354 360 323 353 9 28 26 3 13 47 77 71 51 63 63 46 55 57 51 48 52 59 71 72 82 91 98 92 92 87 81 77
51 338 70 340 13 19 359 349 13 78 96 142 109 294 283 38 71 52 295 279 303 305 312 359 74 50 80 333 325 35 48 48 52 51 24 22 19 34 35 40 40 33 37 62 70 77 82 88 90 94 99 101 95 86
79 323 79 325 317 39 336 348 344 348 157 180 213 90 68 79 68 268 243 243 253 264 293 320 172 126 354 359 318 3 24 47 53 52 28 37 35 25 360 17 6 11 20 35 66 79 91 93 88 81 78 83 97 79
79 255 216 148 143 177 317 293 254 70 36 32 321 106 79 72 264 250 268 233 234 285 303 303 220 185 164 146 104 74 54 38 56 84 66 63 62 59 56 41 350 336 350 16 56 105 131 120 91 74 66 56 58 65
217 164 175 185 204 178 253 223 175 211 226 208 103 181 196 202 232 220 203 217 204 182 202 116 141 153 148 137 109 70 39 20 5 261 144 63 55 50 44 38 38 49 48 69 92 104 106 113 90 68 65 73 66 54
221 188 137 234 204 214 223 199 217 218 182 157 177 206 230 221 224 189 181 174 186 187 158 149 148 160 148 138 113 74 47 23 9 355 17 360 355 9 15 15 15 24 60 77 75 69 65 62 75 84 66 51 41 29
244 160 150 194 200 229 233 171 196 175 163 164 142 42 332 269 228 194 181 178 180 194 210 210 194 189 190 187 180 141 64 34 23 10 99 299 332 357 5 10 7 354 344 52 56 98 113 100 79 57 40 30 24 18
132 146 196 199 237 256 224 145 95 107 114 166 204 191 242 266 270 241 218 206 194 175 171 179 206 226 229 228 225 215 242 204 63 67 61 30 6 19 19 18 25 37 62 91 100 87 77 65 49 36 30 25 18 7
173 192 179 211 266 328 122 116 151 169 189 184 241 162 343 60 270 262 201 183 177 186 212 210 205 229 245 278 285 273 254 207 186 152 238 336 358 2 10 25 29 36 46 64 58 59 48 37 34 26 16 10 4 1
217 137 138 124 92 230 232 132 175 260 206 228 237 198 191 184 223 254 199 207 217 232 216 205 202 183 317 314 311 307 248 211 211 224 278 308 326 332 331 314 13 34 38 42 42 31 16 13 14 7 355 349 2 358